This is the latest recevied weather packets stored in our database for station/object KU9TRY. If no packets are shown the sender has not sent any weather packets the latest 10 day(s).
| Time | Temp. | Humidity | Pressure | Rain* | Wind** | Luminosity | Snow |
|---|---|---|---|---|---|---|---|
| 1777758824 | 17.22° C | 50% | 1015.1 hPa | 0 mm | - | 71 W/m² | - |
| 1777758521 | 17.22° C | 46% | 1015.1 hPa | 0 mm | - | 96 W/m² | - |
| 1777758217 | 17.22° C | 43% | 1015.2 hPa | 0 mm | - | 109 W/m² | - |
| 1777757915 | 17.22° C | 35% | 1015.2 hPa | 0 mm | - | 83 W/m² | - |
| 1777757612 | 17.22° C | 35% | 1015.2 hPa | 0 mm | - | 105 W/m² | - |
| 1777757311 | 17.22° C | 38% | 1015.2 hPa | 0 mm | - | 127 W/m² | - |
| 1777757009 | 16.67° C | 37% | 1015 hPa | 0 mm | - | 121 W/m² | - |
| 1777756706 | 16.67° C | 36% | 1015.3 hPa | 0 mm | - | 117 W/m² | - |
| 1777756401 | 17.22° C | 33% | 1015.2 hPa | 0 mm | - | 103 W/m² | - |
| 1777756099 | 17.22° C | 43% | 1015.2 hPa | 0 mm | - | 88 W/m² | - |
| 1777755796 | 17.22° C | 36% | 1015.4 hPa | 0 mm | - | 88 W/m² | - |
| 1777755493 | 17.22° C | 36% | 1015.2 hPa | 0 mm | - | 54 W/m² | - |
| 1777755189 | 17.22° C | 34% | 1015.5 hPa | 0 mm | - | 59 W/m² | - |
| 1777754886 | 16.67° C | 39% | 1015.4 hPa | 0 mm | - | 95 W/m² | - |
| 1777754583 | 16.67° C | 37% | 1015.4 hPa | 0 mm | - | 107 W/m² | - |
| 1777754281 | 16.67° C | 37% | 1015.5 hPa | 0 mm | - | 96 W/m² | - |
| 1777753979 | 17.22° C | 36% | 1015.7 hPa | 0 mm | - | 59 W/m² | - |
| 1777753678 | 17.22° C | 35% | 1015.7 hPa | 0 mm | - | 65 W/m² | - |
| 1777753376 | 16.67° C | 35% | 1015.9 hPa | 0 mm | - | 100 W/m² | - |
| 1777753074 | 17.22° C | 38% | 1016 hPa | 0 mm | - | 120 W/m² | - |
| 1777752775 | 17.22° C | 36% | 1015.9 hPa | 0 mm | - | 107 W/m² | - |
| 1777752471 | 17.78° C | 34% | 1015.9 hPa | 0 mm | - | 127 W/m² | - |
| 1777752167 | 17.22° C | 39% | 1016 hPa | 0 mm | - | 94 W/m² | - |
| 1777751866 | 17.22° C | 35% | 1016.3 hPa | 0 mm | - | 86 W/m² | - |
| 1777751562 | 17.22° C | 37% | 1016.4 hPa | 0 mm | - | 78 W/m² | - |
* Rain latest hour (hover to see other rain measurements)
** Current wind speed in m/s (hover to see current wind gust speed)